FW2956 Weather Reports


time (UTC)temp
C
wind
direction
speed
KPH
gust
KPH
rain 1hr
cm
rain 24hr
cm
rain mn
cm
humidity
%
barometer
mb
20260503071607 20 5 3.2 6.4 1.07 2.36 1.45 95 1013.6
20260503054547 21 71 0.0 0.0 0.00 0.89 0.00 95 1014.1
20260503053047 21 71 0.0 1.6 0.00 0.89 0.00 95 1014.2
20260503051546 21 71 0.0 1.6 0.00 0.89 0.00 95 1014.0
20260503050038 21 71 0.0 0.0 0.00 0.89 0.00 95 1014.3
20260503044536 21 71 0.0 0.0 0.00 0.89 0.00 95 1014.2
20260503043032 21 71 0.0 1.6 0.00 0.89 0.00 95 1014.2
20260503041532 21 71 0.0 1.6 0.00 0.89 0.00 95 1014.2
20260503040030 21 168 0.0 0.0 0.00 0.89 0.00 95 1014.1
20260503034529 21 168 0.0 0.0 0.00 0.89 0.89 95 1013.8
20260503033039 21 168 0.0 0.0 0.00 0.89 0.89 95 1013.6
20260503031524 21 168 0.0 0.0 0.00 0.89 0.89 95 1013.3
20260503030024 21 168 0.0 0.0 0.00 0.89 0.89 95 1012.8
20260503024523 21 168 0.0 0.0 0.00 0.89 0.89 95 1013.2
20260503023022 21 170 0.0 0.0 0.00 0.89 0.89 95 1012.8
20260503021526 21 170 0.0 0.0 0.00 0.89 0.89 95 1013.1
20260503020021 21 165 0.0 0.0 0.00 0.89 0.89 95 1013.3
20260503014531 21 165 0.0 0.0 0.03 0.89 0.89 95 1013.1
20260503013018 21 165 0.0 0.0 0.03 0.89 0.89 95 1012.6
20260503011516 21 165 0.0 0.0 0.03 0.89 0.89 95 1011.7
20260503010017 21 165 0.0 1.6 0.03 0.89 0.89 95 1011.9
20260503004524 21 194 0.0 0.0 0.00 0.86 0.86 95 1012.2
20260503003015 21 193 0.0 0.0 0.00 0.86 0.86 94 1011.9
20260503001515 21 194 0.0 4.8 0.03 0.86 0.86 95 1011.7
20260503000013 21 252 1.6 4.8 0.03 0.86 0.86 94 1012.1
20260502234513 21 207 3.2 11.3 0.03 0.86 0.86 94 1009.5
20260502233013 22 147 0.0 0.0 0.05 0.86 0.86 94 1011.0
20260502231515 22 142 0.0 0.0 0.05 0.84 0.84 94 1011.5
20260502230015 22 142 0.0 1.6 0.10 0.84 0.84 94 1011.3
20260502224511 22 200 0.0 0.0 0.13 0.84 0.84 94 1011.3
20260502223010 22 200 0.0 0.0 0.13 0.81 0.81 94 1011.1
20260502221510 22 200 0.0 0.0 0.13 0.79 0.79 93 1011.4
20260502220010 22 200 0.0 0.0 0.15 0.71 0.71 93 1011.7
20260502214512 22 200 0.0 1.6 0.13 0.71 0.71 93 1011.1
20260502213008 22 267 0.0 4.8 0.10 0.69 0.69 92 1011.0
20260502211515 22 269 0.0 4.8 0.66 0.66 0.66 92 1011.1
20260502210013 22 268 3.2 6.4 0.58 0.58 0.58 91 1011.3
20260502204507 23 265 0.0 0.0 0.58 0.58 0.58 90 1011.2
20260502203006 24 265 3.2 16.1 0.58 0.58 0.58 88 1010.9
20260502201507 27 270 0.0 0.0 0.00 0.00 0.00 85 1010.6
20260502200006 27 270 4.8 9.7 0.00 0.00 0.00 85 1010.7
20260502194505 27 266 4.8 12.9 0.00 0.00 0.00 84 1010.7
20260502193004 27 256 4.8 9.7 0.00 0.00 0.00 84 1011.0
20260502191504 27 264 6.4 14.5 0.00 0.00 0.00 82 1011.1
20260502190004 27 242 6.4 12.9 0.00 0.00 0.00 79 1011.3
20260502184503 28 259 6.4 11.3 0.00 0.00 0.00 78 1011.3
20260502183002 28 246 4.8 14.5 0.00 0.00 0.00 75 1011.3
20260502181501 28 262 6.4 17.7 0.00 0.00 0.00 75 1011.4
20260502163058 29 196 4.8 22.5 0.00 0.00 0.00 76 1011.8
20260502161559 29 273 6.4 20.9 0.00 0.00 0.00 76 1011.9
20260502151601 29 250 8.0 17.7 0.00 0.00 0.00 78 1011.7
20260502123018 21 116 0.0 0.0 0.00 0.00 0.00 95 1010.7
20260502121515 20 112 0.0 6.4 0.00 0.00 0.00 94 1010.8
20260502114510 20 107 0.0 6.4 0.00 0.00 0.00 94 1010.7
20260502113008 20 120 0.0 6.4 0.00 0.00 0.00 94 1010.5
20260502111506 20 130 0.0 4.8 0.00 0.00 0.00 94 1010.5
20260502110004 20 144 0.0 6.4 0.00 0.00 0.00 94 1010.4
20260502104503 20 80 0.0 8.0 0.00 0.00 0.00 94 1010.3
20260502103100 20 107 1.6 6.4 0.00 0.00 0.00 94 1009.9
20260502101624 20 107 1.6 4.8 0.00 0.00 0.00 94 1010.2
20260502100104 20 112 0.0 4.8 0.00 0.00 0.00 94 1010.4
20260502090107 21 261 0.0 4.8 0.00 0.00 0.00 93 1010.5